SCP
0 0 0 0 0 0 0 0 0 0 -0 -0 -0 -0 0 0 0 0 0 0 0 0 0 0 0 0 0 0 0 0 0 0 0 0 0 0 0 0 0 0 0 1 1
0 0 0 0 0 0 0 0 0 0 0 0 0 0 0 0 0 0 0 0 0 0 0 0 0 0 0 0 0 0 0 0 0 0 0 0 0 0 0 0 0 0 0
0 0 0 0 0 0 0 0 0 0 0 0 0 0 0 0 0 0 0 0 0 0 0 0 0 0 0 0 0 0 0 0 0 0 0 0 0 0 0 0 0 0 0
0 0 0 0 0 0 0 0 0 0 0 0 0 0 0 0 0 0 0 0 0 0 0 0 0 0 0 0 0 0 0 0 0 0 0 0 0 0 0 0 0 0 0
0 0 0 0 0 0 0 0 0 0 0 0 0 0 0 0 0 0 0 0 0 0 0 0 0 0 0 0 0 0 0 0 0 0 0 0 0 0 0 0 0 0 0
0 0 0 0 0 0 0 0 0 0 0 0 0 0 0 0 0 0 0 0 0 0 0 0 0 0 0 0 0 0 0 0 0 0 0 0 0 0 0 0 0 0 0
0 0 0 0 0 0 0 0 0 0 0 0 0 0 0 0 0 0 0 0 0 0 0 0 0 0 0 0 0 0 0 0 0 0 0 0 0 0 0 0 0 0 0
0 0 0 0 0 0 0 0 0 0 0 0 0 0 0 0 0 0 0 0 0 0 0 0 0 0 0 0 0 0 0 0 0 0 0 0 0 0 0 0 0 0 0
0 0 0 0 0 0 0 0 0 0 0 0 0 0 0 0 0 0 0 0 0 0 0 0 0 0 0 0 0 0 0 0 0 0 0 0 0 0 0 0 0 0 0
0 0 0 0 0 0 0 0 0 0 0 0 0 0 0 0 0 0 0 0 0 0 0 0 0 0 0 0 0 0 0 0 0 0 0 0 0 0 0 0 0 0 0
0 0 0 0 0 0 0 0 0 0 0 0 0 0 0 0 0 0 0 0 0 0 0 0 0 0 0 0 0 0 0 0 0 0 0 0 0 0 0 0 0 0 0
0 0 0 0 0 0 0 0 0 0 0 0 0 0 0 0 0 0 0 0 0 0 0 0 0 0 0 0 0 0 0 0 0 0 0 0 0 0 0 0 0 0 0
0 0 0 0 0 0 0 0 0 0 0 0 0 0 0 0 0 0 0 0 0 0 0 0 0 0 0 0 0 0 0 0 0 0 0 0 0 0 0 0 0 0 0
0 0 0 0 0 0 0 0 0 0 0 0 0 0 0 0 0 0 0 0 0 0 0 0 0 0 0 0 0 0 0 0 0 0 0 0 0 0 0 0 0 0 0
0 0 0 0 0 0 0 0 0 0 0 0 0 0 0 0 0 0 0 0 0 0 0 0 0 0 0 0 0 0 0 0 0 0 0 0 0 0 0 0 0 0 0
0 0 0 0 0 0 0 0 0 0 0 0 0 0 0 0 0 0 0 0 0 0 0 0 0 0 0 0 0 0 0 0 0 -0 -0 -0 0 0 0 0 0 0 0
0 0 0 0 0 0 0 0 0 0 0 0 0 0 0 0 0 0 0 0 0 0 0 0 0 0 0 0 0 0 0 0 0 0 -0 -0 -0 0 0 0 0 0 0
0 0 0 0 0 0 0 0 0 0 0 0 0 0 0 0 0 0 0 0 0 0 0 0 0 0 0 0 0 0 0 0 0 0 -0 -0 -0 0 0 0 0 0 0
0 0 0 0 0 0 0 0 0 0 0 0 0 0 0 0 0 0 0 0 0 0 0 0 0 0 0 0 0 0 0 0 0 0 0 0 -0 0 0 0 0 0 0
0 0 0 0 0 0 0 0 0 0 0 0 0 0 0 0 0 0 0 0 0 0 0 0 0 0 0 0 0 0 0 0 0 0 0 0 0 0 0 0 0 0 0
0 0 0 0 0 0 0 0 0 0 0 0 0 0 0 0 0 0 0 0 0 0 0 0 0 0 0 0 0 0 0 0 0 0 0 0 0 0 0 0 0 0 0
0 0 0 0 0 0 0 0 0 0 0 0 0 0 0 0 0 0 0 0 0 0 0 0 0 0 0 0 0 0 0 0 0 0 0 0 0 0 0 0 0 0 0
0 0 0 0 -0 0 0 0 0 0 0 0 0 0 0 0 0 0 0 0 0 0 0 0 0 0 0 0 0 0 0 0 0 0 0 0 0 0 0 0 0 0 0
-0 -0 -0 -0 -0 0 0 0 0 0 0 0 0 0 0 0 0 0 0 0 0 0 0 0 0 0 0 0 0 0 0 0 0 0 0 -0 0 0 0 0 0 0 0
-0 -0 -0 -0 0 -0 -0 -0 -0 -0 -0 0 0 0 0 0 0 0 0 -0 -0 0 -0 -0 0 -0 -0 -0 0 -0 -0 -0 0 -0 -0 -0 0 -0 0 0 0 0 0
-0 -0 -0 -0 -0 0 -0 -0 -0 -0 0 0 0 0 0 0 0 0 0 0 -0 -0 -0 -0 -0 -0 -0 -0 -0 -0 0 -0 -0 -0 0 0 0 0 0 0 -0 0 0
Wind_Speed_500mb
15 5 4 12 20 22 24 31 36 40 46 53 56 52 51 51 52 53 53 53 54 52 51 52 51 52 52 51 52 53 51 48 59 77 67 63 67 66 70 69 64 60 54
16 10 9 11 12 16 22 30 36 42 49 54 49 49 53 57 59 61 62 62 64 66 65 64 62 61 60 57 55 52 50 51 56 71 65 53 53 50 56 65 71 67 59
16 11 9 13 17 22 29 36 42 46 51 51 51 54 58 62 67 68 69 72 72 73 73 74 75 72 74 72 69 68 63 60 58 65 69 61 56 51 57 64 69 64 58
12 9 15 19 25 31 37 42 41 43 46 49 53 58 64 71 78 80 80 79 80 81 79 78 77 77 81 82 81 81 77 76 76 76 78 77 72 67 61 60 66 61 61
16 18 24 29 33 37 39 41 44 49 54 59 66 73 80 88 89 82 75 71 68 67 63 61 60 60 62 67 74 80 84 85 87 88 88 85 87 84 75 72 70 65 65
21 27 33 36 36 39 43 48 54 59 65 72 80 89 92 84 72 62 56 52 48 48 49 46 46 46 49 53 58 62 66 74 77 81 89 79 85 84 78 69 70 70 77
28 31 34 38 43 48 55 62 69 75 82 88 87 81 71 58 47 43 44 45 45 45 47 48 48 47 49 54 55 53 53 54 56 64 69 72 73 77 75 77 75 72 77
30 38 45 51 57 65 72 79 85 86 83 75 67 58 50 39 37 38 41 44 45 46 46 46 49 48 48 51 49 50 48 45 47 47 55 62 67 68 61 55 56 61 71
43 52 58 66 73 79 83 81 76 71 63 57 50 41 37 35 35 38 41 43 46 48 49 48 46 46 41 40 41 44 45 45 50 48 45 47 46 49 52 59 60 54 59
59 65 69 72 73 72 67 63 58 54 48 42 39 36 36 36 36 38 42 47 51 51 51 49 48 47 46 45 47 47 51 50 46 45 43 42 43 43 42 41 49 66 71
59 61 63 62 59 55 51 46 44 40 36 36 43 36 35 39 41 44 45 47 46 47 50 53 54 53 53 51 50 48 51 49 52 50 49 49 51 45 44 47 50 54 56
55 54 52 47 43 41 39 35 32 32 35 41 44 40 42 47 49 46 47 42 42 48 54 56 60 56 57 56 56 55 54 54 54 55 56 56 57 56 51 51 51 51 58
46 43 38 34 31 30 32 33 33 34 37 39 43 48 53 54 48 47 46 47 50 53 54 57 61 63 63 56 49 49 50 51 51 53 57 60 57 52 46 49 48 44 46
39 36 34 33 32 30 29 32 36 35 37 40 45 50 51 50 50 52 54 56 57 61 64 65 61 59 47 41 40 41 43 45 47 51 54 53 45 43 46 44 44 39 41
37 35 35 34 36 35 33 35 36 32 32 37 39 43 49 49 49 51 49 52 56 56 51 49 49 50 50 45 39 33 33 35 37 37 38 40 42 42 40 35 38 37 43
39 38 39 39 38 38 41 44 34 32 28 26 30 37 38 37 43 41 43 42 41 45 53 59 56 53 51 48 44 38 31 27 24 28 33 33 35 36 29 28 31 35 39
40 40 40 40 42 44 45 45 48 37 26 27 27 26 25 34 35 36 39 38 33 43 53 59 59 60 59 54 49 39 34 22 31 43 39 32 29 25 26 30 30 32 35
41 40 41 42 42 43 44 45 46 48 49 40 27 25 23 29 29 32 30 32 36 47 61 64 71 70 64 65 52 42 41 35 30 30 41 32 37 34 27 26 11 20 28
42 41 41 41 41 42 42 45 46 45 44 42 39 28 25 25 27 26 22 30 38 50 64 69 65 57 70 70 65 48 35 43 36 32 21 13 21 15 19 25 13 23 25
38 37 38 41 44 46 49 50 49 47 46 46 44 45 41 34 35 32 27 28 34 47 61 68 54 60 62 64 64 46 39 33 27 24 25 2 9 18 23 29 24 23 27
39 38 38 39 43 46 48 49 49 49 48 48 46 44 40 40 39 38 35 33 39 46 56 62 61 64 67 69 64 51 31 24 19 20 12 11 7 14 31 29 30 33 32
37 37 36 38 39 42 46 47 49 50 50 50 48 45 42 41 39 38 36 33 32 39 50 60 64 70 73 71 73 60 28 17 11 7 10 12 14 15 29 35 37 28 29
35 35 34 33 35 36 41 46 51 53 55 54 53 52 51 49 45 41 41 35 30 32 40 53 59 68 73 75 76 66 31 17 9 4 7 6 17 24 28 32 32 33 34
36 38 39 39 39 39 41 45 49 52 57 59 59 58 57 56 53 46 48 44 30 27 33 42 50 56 68 76 77 74 55 18 9 9 9 4 15 21 21 26 33 33 35
37 39 42 45 47 46 44 45 46 50 55 58 61 62 62 61 60 56 50 50 41 30 28 33 40 48 58 68 75 65 59 24 15 10 8 8 15 17 17 28 34 38 43
40 41 42 44 47 47 49 49 50 51 53 55 58 61 63 65 65 65 63 58 51 42 34 30 34 37 46 56 65 68 49 45 24 21 18 13 17 27 30 35 34 33 32
Wind_Direction_500mb
155 148 320 331 332 329 324 325 329 329 330 330 329 329 323 321 317 312 310 307 303 299 295 294 292 290 287 282 277 275 273 270 270 273 272 268 263 263 265 267 269 268 265
185 211 252 266 286 298 305 312 316 320 324 324 324 327 325 324 322 315 309 305 303 300 298 296 293 292 289 289 287 285 282 276 273 274 277 274 265 261 262 263 265 268 268
203 215 252 273 278 292 302 308 312 316 318 318 319 317 317 316 315 310 304 301 296 292 291 290 289 287 285 283 281 279 278 277 277 277 278 276 273 267 261 257 261 264 263
219 236 259 275 289 295 297 300 302 306 306 306 307 307 307 307 307 304 299 295 292 290 289 287 284 281 279 278 276 275 274 274 273 272 272 272 271 269 263 262 263 260 259
235 263 278 283 285 289 291 292 297 299 302 304 304 304 305 307 307 304 299 295 293 291 289 287 285 284 281 279 278 276 274 270 268 268 270 272 271 269 267 267 264 266 263
270 277 277 278 283 286 291 295 298 300 302 303 304 305 306 306 303 303 302 301 301 300 300 298 293 290 291 287 280 275 270 267 267 267 267 264 266 269 270 269 268 265 266
275 275 281 288 293 294 296 297 299 300 302 304 306 305 306 306 309 305 303 306 308 308 306 303 299 298 297 295 292 282 275 269 262 261 262 267 272 270 271 270 266 264 264
282 286 289 291 294 295 298 300 301 304 307 310 311 312 311 315 315 313 307 308 309 308 307 304 300 300 298 294 294 287 279 270 267 263 260 261 264 268 268 265 260 258 259
291 291 294 298 299 300 302 304 308 309 312 315 316 318 320 322 315 315 316 314 312 312 309 304 301 299 298 295 292 285 279 270 271 272 266 263 259 257 256 254 250 255 255
297 298 301 303 305 306 309 313 314 317 320 324 327 329 326 326 327 326 323 320 320 320 319 314 309 304 297 293 294 290 287 279 274 271 269 262 261 260 262 262 263 256 253
308 310 309 309 311 314 317 319 322 327 331 333 329 329 335 333 331 327 326 324 324 320 318 316 311 306 300 294 291 286 281 281 276 271 267 265 264 260 269 271 267 258 253
314 313 315 318 320 321 322 327 329 329 333 332 328 331 335 334 332 328 324 325 322 319 319 320 317 316 312 302 287 280 280 278 274 268 267 264 263 265 274 276 274 267 252
324 326 327 326 327 330 335 335 335 332 332 328 327 333 335 335 337 331 329 329 332 329 326 320 315 315 312 304 293 282 279 275 268 266 266 266 268 274 276 272 268 260 251
337 339 340 342 346 346 342 340 336 335 332 331 334 330 329 333 338 338 339 341 340 335 328 322 320 317 315 308 296 285 280 275 268 267 266 268 272 271 271 269 262 254 246
351 351 351 353 351 347 345 344 343 344 342 332 327 323 326 332 337 340 344 340 340 341 345 355 358 354 351 345 329 312 298 286 274 266 265 270 273 274 272 263 256 251 244
357 358 358 355 353 352 350 351 358 348 344 333 319 318 321 323 331 343 341 340 339 343 347 346 346 344 339 334 333 333 320 303 279 283 288 287 277 279 267 265 248 242 237
3 2 0 1 1 1 359 354 347 348 346 339 332 326 322 332 339 341 338 339 339 348 353 355 349 349 347 341 334 325 311 285 273 287 287 277 281 272 258 284 261 234 230
13 14 14 12 10 8 4 2 357 351 349 353 359 343 336 340 340 338 334 337 355 353 353 354 356 352 351 352 347 331 322 311 285 285 290 275 258 250 241 267 250 203 194
13 14 16 16 17 12 9 9 5 2 360 356 354 357 346 349 347 352 345 345 357 350 353 357 354 356 3 359 355 346 332 330 341 331 338 252 260 261 218 212 204 168 152
11 12 14 16 18 16 17 14 10 7 5 3 1 356 350 353 355 359 355 349 350 355 358 359 6 2 358 13 3 345 334 337 342 342 345 267 246 241 201 191 194 172 169
10 12 13 17 18 19 18 17 15 12 8 6 5 2 359 359 357 354 354 354 357 357 0 4 10 8 10 10 360 354 340 331 334 345 339 338 174 205 189 196 177 170 179
10 8 11 15 17 20 23 20 20 19 16 11 9 10 7 7 3 356 351 355 354 354 359 4 12 13 12 11 9 8 8 352 343 347 355 359 66 62 164 172 170 178 174
12 12 12 16 20 21 25 24 25 24 23 20 17 14 14 11 7 1 356 352 345 348 354 0 9 10 11 10 11 14 17 1 355 352 353 39 107 117 118 140 164 168 166
23 25 25 24 23 24 26 25 26 25 27 24 23 21 19 16 12 7 360 355 351 340 344 358 7 6 5 8 9 18 23 21 59 69 53 92 142 148 140 150 151 156 158
27 28 29 28 27 27 26 27 26 24 26 25 23 23 22 20 17 13 9 360 355 349 335 344 356 1 3 6 7 14 23 75 80 71 82 95 143 139 138 139 138 151 155
31 30 29 29 29 27 27 27 26 25 25 24 23 22 21 20 18 16 13 10 5 0 352 340 340 348 357 0 4 7 18 35 69 74 70 98 135 134 131 136 143 144 145
Wind_Speed_850mb
15 5 4 12 20 22 24 31 36 40 46 53 56 52 51 51 52 53 53 53 54 52 51 52 51 52 52 51 52 53 51 48 59 77 67 63 67 66 70 69 64 60 54
16 10 9 11 12 16 22 30 36 42 49 54 49 49 53 57 59 61 62 62 64 66 65 64 62 61 60 57 55 52 50 51 56 71 65 53 53 50 56 65 71 67 59
16 11 9 13 17 22 29 36 42 46 51 51 51 54 58 62 67 68 69 72 72 73 73 74 75 72 74 72 69 68 63 60 58 65 69 61 56 51 57 64 69 64 58
12 9 15 19 25 31 37 42 41 43 46 49 53 58 64 71 78 80 80 79 80 81 79 78 77 77 81 82 81 81 77 76 76 76 78 77 72 67 61 60 66 61 61
16 18 24 29 33 37 39 41 44 49 54 59 66 73 80 88 89 82 75 71 68 67 63 61 60 60 62 67 74 80 84 85 87 88 88 85 87 84 75 72 70 65 65
21 27 33 36 36 39 43 48 54 59 65 72 80 89 92 84 72 62 56 52 48 48 49 46 46 46 49 53 58 62 66 74 77 81 89 79 85 84 78 69 70 70 77
28 31 34 38 43 48 55 62 69 75 82 88 87 81 71 58 47 43 44 45 45 45 47 48 48 47 49 54 55 53 53 54 56 64 69 72 73 77 75 77 75 72 77
30 38 45 51 57 65 72 79 85 86 83 75 67 58 50 39 37 38 41 44 45 46 46 46 49 48 48 51 49 50 48 45 47 47 55 62 67 68 61 55 56 61 71
43 52 58 66 73 79 83 81 76 71 63 57 50 41 37 35 35 38 41 43 46 48 49 48 46 46 41 40 41 44 45 45 50 48 45 47 46 49 52 59 60 54 59
59 65 69 72 73 72 67 63 58 54 48 42 39 36 36 36 36 38 42 47 51 51 51 49 48 47 46 45 47 47 51 50 46 45 43 42 43 43 42 41 49 66 71
59 61 63 62 59 55 51 46 44 40 36 36 43 36 35 39 41 44 45 47 46 47 50 53 54 53 53 51 50 48 51 49 52 50 49 49 51 45 44 47 50 54 56
55 54 52 47 43 41 39 35 32 32 35 41 44 40 42 47 49 46 47 42 42 48 54 56 60 56 57 56 56 55 54 54 54 55 56 56 57 56 51 51 51 51 58
46 43 38 34 31 30 32 33 33 34 37 39 43 48 53 54 48 47 46 47 50 53 54 57 61 63 63 56 49 49 50 51 51 53 57 60 57 52 46 49 48 44 46
39 36 34 33 32 30 29 32 36 35 37 40 45 50 51 50 50 52 54 56 57 61 64 65 61 59 47 41 40 41 43 45 47 51 54 53 45 43 46 44 44 39 41
37 35 35 34 36 35 33 35 36 32 32 37 39 43 49 49 49 51 49 52 56 56 51 49 49 50 50 45 39 33 33 35 37 37 38 40 42 42 40 35 38 37 43
39 38 39 39 38 38 41 44 34 32 28 26 30 37 38 37 43 41 43 42 41 45 53 59 56 53 51 48 44 38 31 27 24 28 33 33 35 36 29 28 31 35 39
40 40 40 40 42 44 45 45 48 37 26 27 27 26 25 34 35 36 39 38 33 43 53 59 59 60 59 54 49 39 34 22 31 43 39 32 29 25 26 30 30 32 35
41 40 41 42 42 43 44 45 46 48 49 40 27 25 23 29 29 32 30 32 36 47 61 64 71 70 64 65 52 42 41 35 30 30 41 32 37 34 27 26 11 20 28
42 41 41 41 41 42 42 45 46 45 44 42 39 28 25 25 27 26 22 30 38 50 64 69 65 57 70 70 65 48 35 43 36 32 21 13 21 15 19 25 13 23 25
38 37 38 41 44 46 49 50 49 47 46 46 44 45 41 34 35 32 27 28 34 47 61 68 54 60 62 64 64 46 39 33 27 24 25 2 9 18 23 29 24 23 27
39 38 38 39 43 46 48 49 49 49 48 48 46 44 40 40 39 38 35 33 39 46 56 62 61 64 67 69 64 51 31 24 19 20 12 11 7 14 31 29 30 33 32
37 37 36 38 39 42 46 47 49 50 50 50 48 45 42 41 39 38 36 33 32 39 50 60 64 70 73 71 73 60 28 17 11 7 10 12 14 15 29 35 37 28 29
35 35 34 33 35 36 41 46 51 53 55 54 53 52 51 49 45 41 41 35 30 32 40 53 59 68 73 75 76 66 31 17 9 4 7 6 17 24 28 32 32 33 34
36 38 39 39 39 39 41 45 49 52 57 59 59 58 57 56 53 46 48 44 30 27 33 42 50 56 68 76 77 74 55 18 9 9 9 4 15 21 21 26 33 33 35
37 39 42 45 47 46 44 45 46 50 55 58 61 62 62 61 60 56 50 50 41 30 28 33 40 48 58 68 75 65 59 24 15 10 8 8 15 17 17 28 34 38 43
40 41 42 44 47 47 49 49 50 51 53 55 58 61 63 65 65 65 63 58 51 42 34 30 34 37 46 56 65 68 49 45 24 21 18 13 17 27 30 35 34 33 32
Wind_Direction_850mb
155 148 320 331 332 329 324 325 329 329 330 330 329 329 323 321 317 312 310 307 303 299 295 294 292 290 287 282 277 275 273 270 270 273 272 268 263 263 265 267 269 268 265
185 211 252 266 286 298 305 312 316 320 324 324 324 327 325 324 322 315 309 305 303 300 298 296 293 292 289 289 287 285 282 276 273 274 277 274 265 261 262 263 265 268 268
203 215 252 273 278 292 302 308 312 316 318 318 319 317 317 316 315 310 304 301 296 292 291 290 289 287 285 283 281 279 278 277 277 277 278 276 273 267 261 257 261 264 263
219 236 259 275 289 295 297 300 302 306 306 306 307 307 307 307 307 304 299 295 292 290 289 287 284 281 279 278 276 275 274 274 273 272 272 272 271 269 263 262 263 260 259
235 263 278 283 285 289 291 292 297 299 302 304 304 304 305 307 307 304 299 295 293 291 289 287 285 284 281 279 278 276 274 270 268 268 270 272 271 269 267 267 264 266 263
270 277 277 278 283 286 291 295 298 300 302 303 304 305 306 306 303 303 302 301 301 300 300 298 293 290 291 287 280 275 270 267 267 267 267 264 266 269 270 269 268 265 266
275 275 281 288 293 294 296 297 299 300 302 304 306 305 306 306 309 305 303 306 308 308 306 303 299 298 297 295 292 282 275 269 262 261 262 267 272 270 271 270 266 264 264
282 286 289 291 294 295 298 300 301 304 307 310 311 312 311 315 315 313 307 308 309 308 307 304 300 300 298 294 294 287 279 270 267 263 260 261 264 268 268 265 260 258 259
291 291 294 298 299 300 302 304 308 309 312 315 316 318 320 322 315 315 316 314 312 312 309 304 301 299 298 295 292 285 279 270 271 272 266 263 259 257 256 254 250 255 255
297 298 301 303 305 306 309 313 314 317 320 324 327 329 326 326 327 326 323 320 320 320 319 314 309 304 297 293 294 290 287 279 274 271 269 262 261 260 262 262 263 256 253
308 310 309 309 311 314 317 319 322 327 331 333 329 329 335 333 331 327 326 324 324 320 318 316 311 306 300 294 291 286 281 281 276 271 267 265 264 260 269 271 267 258 253
314 313 315 318 320 321 322 327 329 329 333 332 328 331 335 334 332 328 324 325 322 319 319 320 317 316 312 302 287 280 280 278 274 268 267 264 263 265 274 276 274 267 252
324 326 327 326 327 330 335 335 335 332 332 328 327 333 335 335 337 331 329 329 332 329 326 320 315 315 312 304 293 282 279 275 268 266 266 266 268 274 276 272 268 260 251
337 339 340 342 346 346 342 340 336 335 332 331 334 330 329 333 338 338 339 341 340 335 328 322 320 317 315 308 296 285 280 275 268 267 266 268 272 271 271 269 262 254 246
351 351 351 353 351 347 345 344 343 344 342 332 327 323 326 332 337 340 344 340 340 341 345 355 358 354 351 345 329 312 298 286 274 266 265 270 273 274 272 263 256 251 244
357 358 358 355 353 352 350 351 358 348 344 333 319 318 321 323 331 343 341 340 339 343 347 346 346 344 339 334 333 333 320 303 279 283 288 287 277 279 267 265 248 242 237
3 2 0 1 1 1 359 354 347 348 346 339 332 326 322 332 339 341 338 339 339 348 353 355 349 349 347 341 334 325 311 285 273 287 287 277 281 272 258 284 261 234 230
13 14 14 12 10 8 4 2 357 351 349 353 359 343 336 340 340 338 334 337 355 353 353 354 356 352 351 352 347 331 322 311 285 285 290 275 258 250 241 267 250 203 194
13 14 16 16 17 12 9 9 5 2 360 356 354 357 346 349 347 352 345 345 357 350 353 357 354 356 3 359 355 346 332 330 341 331 338 252 260 261 218 212 204 168 152
11 12 14 16 18 16 17 14 10 7 5 3 1 356 350 353 355 359 355 349 350 355 358 359 6 2 358 13 3 345 334 337 342 342 345 267 246 241 201 191 194 172 169
10 12 13 17 18 19 18 17 15 12 8 6 5 2 359 359 357 354 354 354 357 357 0 4 10 8 10 10 360 354 340 331 334 345 339 338 174 205 189 196 177 170 179
10 8 11 15 17 20 23 20 20 19 16 11 9 10 7 7 3 356 351 355 354 354 359 4 12 13 12 11 9 8 8 352 343 347 355 359 66 62 164 172 170 178 174
12 12 12 16 20 21 25 24 25 24 23 20 17 14 14 11 7 1 356 352 345 348 354 0 9 10 11 10 11 14 17 1 355 352 353 39 107 117 118 140 164 168 166
23 25 25 24 23 24 26 25 26 25 27 24 23 21 19 16 12 7 360 355 351 340 344 358 7 6 5 8 9 18 23 21 59 69 53 92 142 148 140 150 151 156 158
27 28 29 28 27 27 26 27 26 24 26 25 23 23 22 20 17 13 9 360 355 349 335 344 356 1 3 6 7 14 23 75 80 71 82 95 143 139 138 139 138 151 155
31 30 29 29 29 27 27 27 26 25 25 24 23 22 21 20 18 16 13 10 5 0 352 340 340 348 357 0 4 7 18 35 69 74 70 98 135 134 131 136 143 144 145